(245963) = 2006 SH65

Discovered at Anderson Mesa on 2006-09-16 by LONEOS.

Orbit

Orbit type: Main Belt

Note: WebGL enabled browser required.

epoch2023-02-25.0
epoch JD2460000.5
perihelion date2020-01-22.48987
perihelion JD2458870.98987
argument of perihelion (°)123.28962
ascending node (°)184.82799
inclination (°)7.07957
eccentricity0.1161513
perihelion distance (AU)2.4478365
Tisserand w.r.t. Jupiter3.3
ΔV w.r.t. Earth (km/sec)10.0
semimajor axis (AU)2.7695198
mean anomaly (°)241.53900
mean daily motion (°/day)0.21384400
aphelion distance (AU)3.091
period (years)4.61
P-vector [x]0.61674139
P-vector [y]-0.75697874
P-vector [z]-0.21590100
Q-vector [x]0.78709749
Q-vector [y]0.58942407
Q-vector [z]0.18181534
absolute magnitude16.57
phase slope0.15
uncertainty0
referenceMPO 745323
observations used366
oppositions17
arc length (days)22856
first opposition used1960
last opposition used2023
residual rms (arc-secs)0.76
perturbers coarse indicatorM-v
perturbers precise indicator003Ek
first observation date used1960-09-24.0
last observation date used2023-04-23.0
computer nameMPCLINUX
JD of orbit computation2456819.484929
perihelion JD uncertainty (days)1.9527E-04
argument of perihelion uncertainty (°)6.4326E-05
ascending node uncertainty (°)4.8092E-05
inclination uncertainty (°)9.5413E-06
eccentricity uncertainty 4.7634E-08
perihelion distance uncertainty (AU)1.3382E-07
Minimum Orbit Intersection Distances (in AU)
for orbit epoch: 2460000.5, reference: E2023-HG6
Mercury2.02175
Venus1.73112
Earth1.4412
Mars1.07657
Jupiter2.16736
Saturn6.04876
Uranus15.4155
Neptune27.0638

Observations

371 total observations over interval: 1960 09 24.38750 – 2023 04 23.334764
These data are available for download (format description).

Date (UT) J2000 RA J2000 Dec Magn Location Ref
1960 09 24.38750 00 24 12.08 +02 51 57.0 20.0   675 – Palomar Mountain MPS 284408
1960 09 24.41180 00 24 11.05 +02 51 46.0 20.2   675 – Palomar Mountain MPS 284408
1960 09 26.31528 00 22 45.09 +02 36 21.4 19.7   675 – Palomar Mountain MPS 284408
1960 09 26.33541 00 22 44.23 +02 36 12.2 19.8   675 – Palomar Mountain MPS 284408
1960 09 28.37778 00 21 11.62 +02 19 39.7 20.1   675 – Palomar Mountain MPS 284408
1960 09 28.39722 00 21 10.73 +02 19 30.5 21.0   675 – Palomar Mountain MPS 284408
2001 07 17.45383 20 14 47.07 -08 41 21.3 21.0   608 – Haleakala-AMOS MPS 197093
2001 07 17.46440 20 14 46.58 -08 41 23.7 20.5   608 – Haleakala-AMOS MPS 197093
2001 07 17.47471 20 14 46.02 -08 41 25.8 20.7   608 – Haleakala-AMOS MPS 197093
2002 11 16.24085 04 03 03.70 +11 52 28.8 20.3   644 – Palomar Mountain/NEAT MPS 197093
2002 11 16.30965 04 02 59.97 +11 52 11.6 20.5   644 – Palomar Mountain/NEAT MPS 197093
2002 11 16.37215 04 02 56.59 +11 51 55.2 20.7   644 – Palomar Mountain/NEAT MPS 197093
2005 04 15.44368 15 16 08.31 -11 30 25.6 20.8 V 691 – Steward Observatory, Kitt Peak-Spacewatch MPS 197093
2005 04 15.46210 15 16 07.63 -11 30 19.1 20.5 V 691 – Steward Observatory, Kitt Peak-Spacewatch MPS 197093
2005 04 15.48057 15 16 06.96 -11 30 12.7 20.6 V 691 – Steward Observatory, Kitt Peak-Spacewatch MPS 197093
2006 09 16.26744 23 35 13.81 -00 10 20.2 19.4 R 699 – Lowell Observatory-LONEOS MPS 181293
2006 09 16.28570 23 35 13.05 -00 10 27.3   699 – Lowell Observatory-LONEOS MPS 181293
2006 09 16.30395 23 35 12.15 -00 10 38.5   699 – Lowell Observatory-LONEOS MPS 181293
2006 09 16.32220 23 35 11.28 -00 10 47.1   699 – Lowell Observatory-LONEOS MPS 181293
2006 09 23.15375 23 30 12.21 -01 06 30.3 20.5 V 691 – Steward Observatory, Kitt Peak-Spacewatch MPS 181293
2006 09 23.17109 23 30 11.45 -01 06 38.8 20.2 V 691 – Steward Observatory, Kitt Peak-Spacewatch MPS 181293
2006 09 23.18844 23 30 10.69 -01 06 47.3 20.1 V 691 – Steward Observatory, Kitt Peak-Spacewatch MPS 181293
2006 09 28.16522 23 26 45.18 -01 46 20.2   291 – LPL/Spacewatch II MPS 181293
2006 09 28.16897 23 26 45.03 -01 46 21.9   291 – LPL/Spacewatch II MPS 181293
2006 09 28.17278 23 26 44.90 -01 46 23.4   291 – LPL/Spacewatch II MPS 181293
2006 10 27.15441 23 15 26.28 -04 35 00.6 22.3 V G96 – Mt. Lemmon Survey MPS 184147
2006 10 27.16384 23 15 26.20 -04 35 02.9 21.9 V G96 – Mt. Lemmon Survey MPS 184147
2006 10 27.17345 23 15 26.17 -04 35 05.0 21.2 V G96 – Mt. Lemmon Survey MPS 184147
2006 10 27.18294 23 15 26.10 -04 35 06.5 21.1 V G96 – Mt. Lemmon Survey MPS 184147
2009 02 20.35284 11 31 16.78 -00 28 15.9 21.4 V G96 – Mt. Lemmon Survey MPS 277608
2009 02 20.36019 11 31 16.46 -00 28 13.0 21.1 V G96 – Mt. Lemmon Survey MPS 277608
2009 02 20.36760 11 31 16.17 -00 28 10.8 20.6 V G96 – Mt. Lemmon Survey MPS 277608
2009 02 20.37487 11 31 15.92 -00 28 08.2 21.7 V G96 – Mt. Lemmon Survey MPS 277608
2009 02 28.22649 11 25 49.33 +00 19 11.7   691 – Steward Observatory, Kitt Peak-Spacewatch MPS 278695
2009 02 28.24412 11 25 48.54 +00 19 17.9   691 – Steward Observatory, Kitt Peak-Spacewatch MPS 278695
2009 02 28.26173 11 25 47.76 +00 19 24.8   691 – Steward Observatory, Kitt Peak-Spacewatch MPS 278695
2010 03 21.200208 18 02 51.994 -16 36 44.10   C51 – WISE MPS 903728
2010 03 21.464943 18 03 09.209 -16 35 53.59   C51 – WISE MPS 903728
2010 03 21.729551 18 03 26.374 -16 35 02.40   C51 – WISE MPS 903728
2010 03 21.994160 18 03 43.459 -16 34 11.10   C51 – WISE MPS 903728
2010 06 06.530523 18 20 58.366 -11 53 52.83 19.59 r F51 – Pan-STARRS 1, Haleakala MPS 337369
2010 06 06.543227 18 20 57.797 -11 53 51.30 19.50 r F51 – Pan-STARRS 1, Haleakala MPS 337369
2010 06 11.423661 18 17 20.142 -11 45 05.39 19.76 g F51 – Pan-STARRS 1, Haleakala MPS 337369
2010 06 11.435624 18 17 19.554 -11 45 04.16 19.89 g F51 – Pan-STARRS 1, Haleakala MPS 337369
2011 08 04.54940 02 35 49.50 +13 24 13.1 21.6 r 568 – Maunakea MPS 1139518
2011 08 04.56439 02 35 50.29 +13 24 14.7 21.6 r 568 – Maunakea MPS 1139518
2011 08 04.58446 02 35 51.35 +13 24 16.9 21.6 r 568 – Maunakea MPS 1139518
2011 09 21.44454 02 55 18.57 +12 25 22.8 20.8 V 691 – Steward Observatory, Kitt Peak-Spacewatch MPS 392471
2011 09 21.44703 02 55 18.55 +12 25 22.2 21.0 V 691 – Steward Observatory, Kitt Peak-Spacewatch MPS 392471
2011 09 21.46235 02 55 18.36 +12 25 18.6 21.1 V 691 – Steward Observatory, Kitt Peak-Spacewatch MPS 392471
2011 09 21.46484 02 55 18.34 +12 25 17.5 20.8 V 691 – Steward Observatory, Kitt Peak-Spacewatch MPS 392471
2011 09 21.48017 02 55 18.15 +12 25 13.7 20.7 V 691 – Steward Observatory, Kitt Peak-Spacewatch MPS 392471
2011 09 21.48265 02 55 18.10 +12 25 13.5 20.7 V 691 – Steward Observatory, Kitt Peak-Spacewatch MPS 392471
2011 09 26.41428 02 54 07.50 +12 02 41.0 20.7 V 691 – Steward Observatory, Kitt Peak-Spacewatch MPS 394107
2011 09 26.43204 02 54 07.14 +12 02 35.9 20.3 V 691 – Steward Observatory, Kitt Peak-Spacewatch MPS 394107
2011 09 26.44979 02 54 06.78 +12 02 30.6 20.6 V 691 – Steward Observatory, Kitt Peak-Spacewatch MPS 394107
2011 09 30.41989 02 52 42.62 +11 42 21.8 20.8 V 691 – Steward Observatory, Kitt Peak-Spacewatch MPS 394107
2011 09 30.43766 02 52 42.16 +11 42 16.0 20.7 V 691 – Steward Observatory, Kitt Peak-Spacewatch MPS 394107
2011 09 30.45543 02 52 41.74 +11 42 10.3 20.4 V 691 – Steward Observatory, Kitt Peak-Spacewatch MPS 394107
2011 10 19.21307 02 41 26.68 +09 49 15.2 20.2 V 691 – Steward Observatory, Kitt Peak-Spacewatch MPS 396123
2011 10 19.23084 02 41 25.87 +09 49 08.6 20.0 V 691 – Steward Observatory, Kitt Peak-Spacewatch MPS 396123
2011 10 19.24861 02 41 25.03 +09 49 01.4 20.2 V 691 – Steward Observatory, Kitt Peak-Spacewatch MPS 396123
2011 10 23.35009 02 38 12.12 +09 22 16.3 19.8 V G96 – Mt. Lemmon Survey MPS 397995
2011 10 23.36040 02 38 11.61 +09 22 12.3 19.8 V G96 – Mt. Lemmon Survey MPS 397995
2011 10 23.37082 02 38 11.07 +09 22 08.7 19.8 V G96 – Mt. Lemmon Survey MPS 397995
2011 10 23.38123 02 38 10.53 +09 22 04.4 19.8 V G96 – Mt. Lemmon Survey MPS 397995
2011 10 25.68867 02 36 18.12 +09 07 02.7 19.9 R D29 – Purple Mountain Observatory, XuYi Station MPS 397995
2011 10 25.70704 02 36 17.19 +09 06 55.1 20.0 R D29 – Purple Mountain Observatory, XuYi Station MPS 397995
2011 10 25.72302 02 36 16.38 +09 06 49.7 19.7 R D29 – Purple Mountain Observatory, XuYi Station MPS 397995
2011 10 30.29077 02 32 28.75 +08 37 29.2 19.8 V 703 – Catalina Sky Survey MPS 399836
2011 10 30.29878 02 32 28.39 +08 37 27.1 20.0 V 703 – Catalina Sky Survey MPS 399836
2011 10 30.30685 02 32 27.99 +08 37 23.7 19.9 V 703 – Catalina Sky Survey MPS 399836
2011 10 30.31501 02 32 27.56 +08 37 19.3 20.0 V 703 – Catalina Sky Survey MPS 399836
2011 10 31.40185 02 31 32.84 +08 30 29.0 19.8 V G96 – Mt. Lemmon Survey MPS 399836
2011 10 31.40873 02 31 32.48 +08 30 26.2 19.9 V G96 – Mt. Lemmon Survey MPS 399836
2011 10 31.41569 02 31 32.12 +08 30 23.7 19.8 V G96 – Mt. Lemmon Survey MPS 399836
2011 10 31.42263 02 31 31.76 +08 30 21.0 19.8 V G96 – Mt. Lemmon Survey MPS 399836
2011 11 19.12647 02 16 57.10 +06 49 20.0 20.5 V G96 – Mt. Lemmon Survey MPS 402210
2011 11 19.13218 02 16 56.89 +06 49 18.8 20.1 V G96 – Mt. Lemmon Survey MPS 402210
2011 11 19.13799 02 16 56.60 +06 49 17.2 20.2 V G96 – Mt. Lemmon Survey MPS 402210
2011 11 19.14378 02 16 56.38 +06 49 15.4 20.3 V G96 – Mt. Lemmon Survey MPS 402210
2013 01 16.35520 08 17 49.09 +10 11 16.1 20.6 V G96 – Mt. Lemmon Survey MPS 452118
2013 01 16.36351 08 17 48.73 +10 11 18.0 20.7 V G96 – Mt. Lemmon Survey MPS 452118
2013 01 16.37184 08 17 48.30 +10 11 19.3 21.0 V G96 – Mt. Lemmon Survey MPS 452118
2013 01 16.38013 08 17 47.83 +10 11 21.2 20.8 V G96 – Mt. Lemmon Survey MPS 452118
2014 03 31.70244 13 39 53.90 -07 14 54.9 21.1 R D29 – Purple Mountain Observatory, XuYi Station MPS 509580
2014 03 31.73426 13 39 52.41 -07 14 41.9 20.5 R D29 – Purple Mountain Observatory, XuYi Station MPS 509580
2014 04 24.36133 13 21 52.325 -04 29 57.07 20.3 w F51 – Pan-STARRS 1, Haleakala MPS 512237
2014 04 24.37258 13 21 51.807 -04 29 52.69 20.2 w F51 – Pan-STARRS 1, Haleakala MPS 512237
2014 04 24.38386 13 21 51.277 -04 29 48.31 20.3 w F51 – Pan-STARRS 1, Haleakala MPS 512237
